Punkttermin-Prognose für Kampen / Sylt
Modell: MOSMIX (Deutscher Wetterdienst)
Modelllaufzeit: 13 UTC
Aktualisierung: stündlich
Dienstag - 20.10.2020
| Wetter - | Temperaturen | Wind | Niederschlag | Druck | Sonne
Zeit GZ | Bewölkung | TT MAX MIN TG TM | DD FF FX1 | RR1 RR24 | PPPP | SS1 SS24
02:00 Uhr | --- | --- --- --- --- --- | --- --- --- | --- | --- | ---
03:00 Uhr | --- | --- --- --- --- --- | --- --- --- | --- | --- | ---
04:00 Uhr | --- | --- --- --- --- --- | --- --- --- | --- | --- | ---
05:00 Uhr | --- | --- --- --- --- --- | --- --- --- | --- | --- | ---
06:00 Uhr | --- | --- --- --- --- --- | --- --- --- | --- | --- | ---
07:00 Uhr | --- | --- --- --- --- --- | --- --- --- | --- | --- | ---
08:00 Uhr | --- | --- --- --- --- --- | --- --- --- | --- | --- | ---
09:00 Uhr | --- | --- --- --- --- --- | --- --- --- | --- | --- | ---
10:00 Uhr | --- | --- --- --- --- --- | --- --- --- | --- | --- | ---
11:00 Uhr | --- | --- --- --- --- --- | --- --- --- | --- | --- | ---
12:00 Uhr | --- | --- --- --- --- --- | --- --- --- | --- | --- | ---
13:00 Uhr | --- | --- --- --- --- --- | --- --- --- | --- | --- | ---
14:00 Uhr | --- | --- --- --- --- --- | --- --- --- | --- | --- | ---
15:00 Uhr | --- | --- --- --- --- --- | --- --- --- | --- | --- | ---
16:00 Uhr | bedeckt | 10 --- --- 10 --- | S 33 48 | 0.0 | 1006 | 0.0
17:00 Uhr | leichter Regen | 10 --- --- 10 --- | S 33 46 | 0.2 | 1006 | 0.0
18:00 Uhr | leichter Regen | 10 --- --- 10 --- | S 32 44 | 0.2 | 1006 | 0.0
19:00 Uhr | leichter Regen | 11 --- --- 10 --- | S 32 44 | 0.2 | 1006 | 0.0
20:00 Uhr | leichter Regen | 11 11 --- 11 --- | S 30 44 | 0.2 | 1006 | 0.0
21:00 Uhr | leichter Regen | 11 --- --- 11 --- | S 30 43 | 0.2 | 1006 | 0.0
22:00 Uhr | leichter Regen | 12 --- --- 11 --- | S 30 43 | 0.1 | 1006 | 0.0
23:00 Uhr | leichter Regen | 12 --- --- 12 --- | S 28 41 | 0.1 | 1005 | 0.0
Mittwoch - 21.10.2020
| Wetter - | Temperaturen | Wind | Niederschlag | Druck | Sonne
Zeit GZ | Bewölkung | TT MAX MIN TG TM | DD FF FX1 | RR1 RR24 | PPPP | SS1 SS24
00:00 Uhr | bedeckt | 12 --- --- 12 --- | S 28 --- | 0.0 | 1005 | 0.0
01:00 Uhr | bedeckt | 12 --- --- 12 --- | S 28 --- | 0.0 | 1005 | 0.0
02:00 Uhr | bedeckt | 12 --- --- 12 --- | S 26 --- | 0.0 | 1005 | 0.0
03:00 Uhr | bedeckt | 12 --- --- 12 --- | S 24 --- | 0.0 | 1005 | 0.0
04:00 Uhr | bedeckt | 12 --- --- 12 --- | S 24 --- | 0.0 | 1004 | 0.0
05:00 Uhr | bedeckt | 12 --- --- 12 --- | S 22 --- | 0.0 | 1004 | 0.0
06:00 Uhr | bedeckt | 12 --- --- 12 --- | S 22 --- | 0.0 | 1004 | 0.0
07:00 Uhr | bedeckt | 12 --- --- 12 --- | S 22 --- | 0.0 | 1004 | 0.0
08:00 Uhr | bedeckt | 12 --- 11 12 --- | S 22 --- | 0.0 | 1003 | 0.0
09:00 Uhr | leichter Regen | 12 --- --- 11 --- | S 22 --- | 0.1 | 1003 | 0.0
10:00 Uhr | leichter Regen | 12 --- --- 11 --- | S 24 --- | 0.3 | 1003 | 0.0
11:00 Uhr | leichter Regen | 12 --- --- 11 --- | SO 26 --- | 0.3 | 1003 | 0.0
12:00 Uhr | leichter Regen | 12 --- --- 11 --- | SO 26 --- | 0.4 | 1002 | 0.0
13:00 Uhr | leichter Regen | 12 --- --- 11 --- | SO 30 41 | 0.4 | 1001 | 0.0
14:00 Uhr | leichter Regen | 12 --- --- 11 --- | SO 30 41 | 0.4 | 1000 | 0.0
15:00 Uhr | leichter Regen | 12 --- --- 11 --- | SO 30 43 | 0.6 | 1000 | 0.0
16:00 Uhr | leichter Regen | 12 --- --- 11 --- | SO 33 48 | 0.4 | 998 | 0.0
17:00 Uhr | leichter Regen | 12 --- --- 11 --- | S 35 50 | 0.4 | 998 | 0.0
18:00 Uhr | leichter Regen | 12 --- --- 12 --- | S 39 56 | 0.5 | 997 | 0.0
19:00 Uhr | leichter Regen | 13 --- --- 12 --- | S 41 59 | 0.4 | 996 | 0.0
20:00 Uhr | leichter Regen | 13 14 --- 13 --- | S 46 67 | 0.4 | 996 | 0.0
21:00 Uhr | leichter Regen | 14 --- --- 13 --- | S 50 72 | 0.2 | 996 | 0.0
22:00 Uhr | leichter Regen | 14 --- --- 14 --- | SW 52 76 | 0.2 | 996 | 0.0
23:00 Uhr | leichter Regen | 14 --- --- 13 12 | SW 50 72 | 0.2 5.2 | 997 | 0.0 0.0
Donnerstag - 22.10.2020
| Wetter - | Temperaturen | Wind | Niederschlag | Druck | Sonne
Zeit GZ | Bewölkung | TT MAX MIN TG TM | DD FF FX1 | RR1 RR24 | PPPP | SS1 SS24
00:00 Uhr | leichter Regen | 14 --- --- 13 --- | SW 48 70 | 0.1 | 998 | 0.0
01:00 Uhr | leichter Regen | 14 --- --- 14 --- | SW 46 68 | 0.1 | 999 | 0.0
02:00 Uhr | leichter Regen | 14 --- --- 14 --- | SW 43 65 | 0.1 | 1000 | 0.0
03:00 Uhr | leichter Regen | 14 --- --- 14 --- | SW 39 59 | 0.2 | 1001 | 0.0
04:00 Uhr | leichter Regen | 14 --- --- 14 --- | SW 39 56 | 0.1 | 1002 | 0.0
05:00 Uhr | leichter Regen | 14 --- --- 13 --- | SW 37 54 | 0.1 | 1002 | 0.0
06:00 Uhr | leichter Regen | 14 --- --- 13 --- | SW 37 54 | 0.1 | 1002 | 0.0
07:00 Uhr | leichter Regen | 14 --- --- 13 --- | SW 37 54 | 0.1 | 1002 | 0.0
08:00 Uhr | leichter Regen | 14 --- 13 13 --- | SW 37 56 | 0.1 | 1003 | 0.0
09:00 Uhr | leichter Regen | 13 --- --- 13 --- | SW 39 56 | 0.3 | 1003 | 0.0
10:00 Uhr | leichter Regen | 14 --- --- 13 --- | SW 39 57 | 0.4 | 1004 | 0.0
11:00 Uhr | starker Regenschauer | 14 --- --- 14 --- | SW 39 59 | 0.6 | 1004 | 0.1
12:00 Uhr | Regenschauer | 14 --- --- 14 --- | SW 39 59 | 0.0 | 1004 | 0.2
13:00 Uhr | Regenschauer | 14 --- --- 14 --- | SW 41 59 | 0.0 | 1004 | 0.2
14:00 Uhr | Regenschauer | 14 --- --- 14 --- | SW 41 61 | 0.0 | 1004 | 0.2
15:00 Uhr | Regenschauer | 14 --- --- 14 --- | SW 44 61 | 0.1 | 1004 | 0.2
16:00 Uhr | Regenschauer | 14 --- --- 14 --- | SW 44 65 | 0.2 | 1004 | 0.2
17:00 Uhr | starker Regenschauer | 13 --- --- 13 --- | SW 44 65 | 0.1 | 1004 | 0.1
18:00 Uhr | starker Regenschauer | 13 --- --- 12 --- | SW 44 65 | 0.2 | 1004 | 0.1
19:00 Uhr | starker Regenschauer | 13 --- --- 12 --- | SW 44 65 | 0.4 | 1004 | 0.0
20:00 Uhr | starker Regenschauer | 13 15 --- 12 --- | SW 44 65 | 0.3 | 1005 | 0.0
21:00 Uhr | Regenschauer | 13 --- --- 12 --- | SW 44 65 | 0.3 | 1005 | 0.0
22:00 Uhr | Regenschauer | 13 --- --- 12 --- | W 43 63 | 0.2 | 1005 | 0.0
23:00 Uhr | Regenschauer | 13 --- --- 12 14 | W 41 61 | 0.2 4.3 | 1005 | 0.0 1.4
Freitag - 23.10.2020
| Wetter - | Temperaturen | Wind | Niederschlag | Druck | Sonne
Zeit GZ | Bewölkung | TT MAX MIN TG TM | DD FF FX3 | RR3 RR24 | PPPP | SS3 SS24
02:00 Uhr | wolkig | 12 --- --- 11 --- | W 35 61 | 0.0 | 1008 | 0.0
05:00 Uhr | Regenschauer | 12 --- --- 11 --- | W 30 52 | 0.0 | 1009 | 0.0
08:00 Uhr | wolkig | 12 --- 11 11 --- | W 24 43 | 0.0 | 1010 | 0.0
11:00 Uhr | wolkig | 12 --- --- 12 --- | SW 26 41 | 0.0 | 1011 | 0.4
14:00 Uhr | wolkig | 13 --- --- 13 --- | SW 28 43 | 0.0 | 1011 | 0.8
17:00 Uhr | wolkig | 12 --- --- 12 --- | SW 28 44 | 0.0 | 1010 | 0.5
20:00 Uhr | leichter Regen | 12 14 --- 10 --- | SW 28 44 | 1.0 | 1009 | 0.1
23:00 Uhr | leichter Regen | 12 --- --- 10 12 | SW 30 48 | 0.3 1.3 | 1009 | 0.0 1.8
Samstag - 24.10.2020
| Wetter - | Temperaturen | Wind | Niederschlag | Druck | Sonne
Zeit GZ | Bewölkung | TT MAX MIN TG TM | DD FF FX3 | RR3 RR24 | PPPP | SS3 SS24
02:00 Uhr | leichter Regen | 12 --- --- 10 --- | SW 28 46 | 0.3 | 1008 | 0.0
05:00 Uhr | leichter Regen | 11 --- --- 10 --- | W 28 46 | 0.7 | 1008 | 0.0
08:00 Uhr | leichter Regen | 11 --- 10 10 --- | W 26 41 | 0.6 | 1010 | 0.0
11:00 Uhr | leichter Regen | 12 --- --- 12 --- | W 24 41 | 0.6 | 1012 | 0.4
14:00 Uhr | wolkig | 13 --- --- 13 --- | W 28 44 | 0.0 | 1012 | 1.1
17:00 Uhr | wolkig | 12 --- --- 12 --- | SW 26 44 | 0.0 | 1014 | 0.8
20:00 Uhr | wolkig | 12 13 --- 10 --- | SW 26 41 | 0.0 | 1014 | 0.2
23:00 Uhr | wolkig | 12 --- --- 10 12 | SW 26 43 | 0.0 2.2 | 1014 | 0.0 2.5
Sonntag - 25.10.2020
| Wetter - | Temperaturen | Wind | Niederschlag | Druck | Sonne
Zeit GZ | Bewölkung | TT MAX MIN TG TM | DD FF FX3 | RR3 RR24 | PPPP | SS3 SS24
02:00 Uhr | stark bewölkt | 12 --- --- 10 --- | S 26 43 | 0.0 | 1015 | 0.0
04:00 Uhr | wolkig | 12 --- --- 10 --- | S 26 --- | 0.0 | 1014 | 0.0
07:00 Uhr | wolkig | 12 --- 11 10 --- | S 28 43 | 0.0 | 1014 | 0.0
10:00 Uhr | wolkig | 12 --- --- 12 --- | S 32 46 | 0.0 | 1015 | 0.6
13:00 Uhr | wolkig | 13 --- --- 14 --- | S 32 46 | 0.0 | 1015 | 1.1
16:00 Uhr | wolkig | 13 --- --- 13 --- | S 30 46 | 0.0 | 1013 | 1.0
19:00 Uhr | wolkig | 12 14 --- 11 --- | S 30 44 | 0.0 | 1014 | 0.2
22:00 Uhr | wolkig | 12 --- --- 11 12 | S 28 --- | 0.0 0.0 | 1013 | 0.0 2.9
Montag - 26.10.2020
| Wetter - | Temperaturen | Wind | Niederschlag | Druck | Sonne
Zeit GZ | Bewölkung | TT MAX MIN TG TM | DD FF FX3 | RR3 RR24 | PPPP | SS3 SS24
01:00 Uhr | wolkig | 12 --- --- 10 --- | S 30 52 | 0.0 | 1012 | 0.0
04:00 Uhr | wolkig | 12 --- --- 10 --- | S 28 52 | 0.0 | 1012 | 0.0
07:00 Uhr | wolkig | 11 --- 10 10 --- | S 26 46 | 0.0 | 1011 | 0.0
10:00 Uhr | wolkig | 11 --- --- 12 --- | S 28 48 | 0.0 | 1012 | 0.6
13:00 Uhr | wolkig | 12 --- --- 13 --- | S 30 50 | 0.0 | 1011 | 1.4
16:00 Uhr | wolkig | 12 --- --- 12 --- | S 28 46 | 0.0 | 1010 | 1.2
19:00 Uhr | wolkig | 12 13 --- 10 --- | S 28 46 | 0.0 | 1011 | 0.3
22:00 Uhr | wolkig | 12 --- --- 10 12 | S 32 48 | 0.0 0.0 | 1010 | 0.0 3.4
Dienstag - 27.10.2020
| Wetter - | Temperaturen | Wind | Niederschlag | Druck | Sonne
Zeit GZ | Bewölkung | TT MAX MIN TG TM | DD FF FX3 | RR3 RR24 | PPPP | SS3 SS24
01:00 Uhr | wolkig | 11 --- --- 10 --- | S 26 44 | 0.0 | 1010 | 0.0
04:00 Uhr | wolkig | 11 --- --- 10 --- | S 24 41 | 0.0 | 1012 | 0.0
07:00 Uhr | wolkig | 11 --- 10 10 --- | S 24 --- | 0.0 | 1010 | 0.0
10:00 Uhr | wolkig | 11 --- --- 11 --- | S 28 41 | 0.0 | 1011 | 0.4
13:00 Uhr | wolkig | 12 --- --- 13 --- | S 28 43 | 0.0 | 1011 | 0.9
16:00 Uhr | wolkig | 12 --- --- 12 --- | S 26 44 | 0.0 | 1010 | 0.7
19:00 Uhr | wolkig | 11 13 --- 11 --- | S 30 43 | 0.0 | 1011 | 0.2
22:00 Uhr | wolkig | 11 --- --- 10 11 | S 33 52 | 0.0 0.0 | 1010 | 0.0 2.1
Mittwoch - 28.10.2020
| Wetter - | Temperaturen | Wind | Niederschlag | Druck | Sonne
Zeit GZ | Bewölkung | TT MAX MIN TG TM | DD FF FX3 | RR3 RR24 | PPPP | SS3 SS24
01:00 Uhr | stark bewölkt | 11 --- --- 10 --- | S 32 56 | 0.0 | 1010 | 0.0
04:00 Uhr | stark bewölkt | 11 --- --- 10 --- | S 28 50 | 0.0 | 1010 | 0.0
07:00 Uhr | stark bewölkt | 11 --- 10 10 --- | SO 26 48 | 0.0 | 1010 | 0.0
10:00 Uhr | stark bewölkt | 11 --- --- 11 --- | SO 32 48 | 0.0 | 1010 | 0.4
13:00 Uhr | wolkig | 11 --- --- 12 --- | SO 32 50 | 0.0 | 1011 | 0.7
16:00 Uhr | wolkig | 11 --- --- 11 --- | SO 30 48 | 0.0 | 1011 | 0.6
19:00 Uhr | Regenschauer | 11 12 --- 10 --- | SO 28 48 | 0.8 | 1012 | 0.1
22:00 Uhr | Regenschauer | 11 --- --- 10 11 | SO 30 46 | 1.4 2.2 | 1013 | 0.0 1.7
Donnerstag - 29.10.2020
| Wetter - | Temperaturen | Wind | Niederschlag | Druck | Sonne
Zeit GZ | Bewölkung | TT MAX MIN TG TM | DD FF FX3 | RR3 RR24 | PPPP | SS3 SS24
01:00 Uhr | leichter Regen | 10 --- --- 10 --- | SO 32 46 | 0.0 | 1013 | 0.0
04:00 Uhr | Regenschauer | 10 --- --- 10 --- | SO 28 48 | 0.6 | 1012 | 0.0
07:00 Uhr | Regenschauer | 10 --- 9 9 --- | SO 26 44 | 0.4 | 1012 | 0.0
10:00 Uhr | Regenschauer | 10 --- --- 10 --- | SO 26 41 | 0.7 | 1012 | 0.3
13:00 Uhr | Regenschauer | 11 --- --- 12 --- | SO 28 44 | 0.4 | 1011 | 0.9
16:00 Uhr | Regenschauer | 11 --- --- 10 --- | SO 26 43 | 0.4 | 1011 | 0.8
19:00 Uhr | Regenschauer | 11 12 --- 10 --- | SO 28 43 | 0.5 | 1011 | 0.2
22:00 Uhr | wolkig | 10 --- --- 9 10 | SO 28 46 | 0.0 3.0 | 1010 | 0.0 2.1
Freitag - 30.10.2020
| Wetter - | Temperaturen | Wind | Niederschlag | Druck | Sonne
Zeit GZ | Bewölkung | TT MAX MIN TG TM | DD FF FX3 | RR3 RR24 | PPPP | SS3 SS24
01:00 Uhr | wolkig | 10 --- --- 9 --- | S 30 46 | 0.0 | 1010 | 0.0
04:00 Uhr | Regenschauer | 10 --- --- 9 --- | S 26 46 | 0.0 | 1009 | 0.0
07:00 Uhr | Regenschauer | 10 --- 9 9 --- | S 32 50 | 1.2 | 1009 | 0.0
10:00 Uhr | starker Regenschauer | 10 --- --- 10 --- | S 32 54 | 1.1 | 1010 | 0.3
13:00 Uhr | starker Regenschauer | 11 --- --- 11 --- | S 32 54 | 1.0 | 1010 | 0.9
---:00 Uhr | --- | --- --- --- --- --- | --- --- --- | --- | --- | ---
---:00 Uhr | --- | --- --- --- --- --- | --- --- --- | --- | --- | ---
---:00 Uhr | --- | --- --- --- --- --- | --- --- --- | --- --- | --- | ---


Wetter : Wetter/Bewölkung zum Termin (aktuelle Stunde) TT : Lufttemperatur in Grad Celsius zum Termin MAX : Maximum Lufttemperatur in Grad Celsius letzte 12 Stunden MIN : Minimum Lufttemperatur der vergangenen Nacht in Grad Celsius letzte 12 Stunden TG : Temperatur in 5cm überm Erdboden TM : Tagesmittel Lufttemperatur in Grad Celsius letzte 24 Stunden DD : Windrichtung zum Termin FF : Windgeschwindigkeit zum Termin FX1 : höchste Windspitze im Bezugszeitraum letzte 1 Stunde in km/h FX3 : höchste Windspitze im Bezugszeitraum letzte 3 Stunden in km/h PPPP : reduzierter Luftdruck auf Meereshöhe in hPa zum Termin RR1 : Niederschlagsmenge im Bezugszeitraum letzte 1 Stunde in mm = l/qm RR3 : Niederschlagsmenge im Bezugszeitraum letzte 3 Stunden in mm = l/qm RR24 : Niederschlagsmenge im Bezugszeitraum letzte 24 Stunden in mm = l/qm SS1 : Sonnenscheindauer letzte 1 Stunde SS3 : Sonnenscheindauer letzte 3 Stunden SS24 : Sonnenscheindauer letzte 24 Stunden --- : Wert nicht vorhanden